This is the latest recevied weather packets stored in our database for station/object KV4OP. If no packets are shown the sender has not sent any weather packets the latest 10 day(s).
| Time | Temp. | Humidity | Pressure | Rain* | Wind** | Luminosity | Snow |
|---|---|---|---|---|---|---|---|
| 1788372321 | 31.67° C | 77% | 1015.5 hPa | 3.56 mm | - | - | - |
| 1788372030 | 31.67° C | 83% | 1015.6 hPa | 3.56 mm | - | - | - |
| 1788371721 | 31.11° C | 82% | 1015.6 hPa | 3.56 mm | - | - | - |
| 1788371421 | 30.56° C | 86% | 1015.6 hPa | 3.56 mm | - | - | - |
| 1788371121 | 30° C | 90% | 1015.7 hPa | 3.56 mm | - | - | - |
| 1788370850 | 28.33° C | 89% | 1015.8 hPa | 3.56 mm | - | - | - |
| 1788370521 | 28.33° C | 89% | 1015.8 hPa | 3.56 mm | - | - | - |
| 1788370221 | 28.33° C | 86% | 1015.7 hPa | 3.56 mm | - | - | - |
| 1788369921 | 30.56° C | 80% | 1015.8 hPa | 0.76 mm | - | - | - |
| 1788369630 | 31.67° C | 81% | 1015.7 hPa | 0.25 mm | - | - | - |
| 1788369328 | 31.11° C | 77% | 1015.9 hPa | 0.25 mm | - | - | - |
| 1788369021 | 31.11° C | 77% | 1016.1 hPa | 0.25 mm | - | - | - |
| 1788368721 | 31.67° C | 78% | 1016.1 hPa | 0.25 mm | - | - | - |
| 1788368431 | 30.56° C | 81% | 1016.3 hPa | 0.25 mm | - | - | - |
| 1788368121 | 30° C | 86% | 1016.4 hPa | 0.25 mm | - | - | - |
| 1788367821 | 29.44° C | 86% | 1016.6 hPa | 0.25 mm | - | - | - |
| 1788367522 | 28.89° C | 86% | 1016.6 hPa | 0.25 mm | - | - | - |
| 1788367230 | 28.89° C | 86% | 1016.6 hPa | 0.25 mm | - | - | - |
| 1788366921 | 28.89° C | 86% | 1016.6 hPa | 0.25 mm | - | - | - |
| 1788366621 | 28.89° C | 85% | 1016.6 hPa | 0.25 mm | - | - | - |
| 1788366321 | 29.44° C | 82% | 1016.5 hPa | 0.25 mm | - | - | - |
| 1788366030 | 30.56° C | 79% | 1016.4 hPa | 0 mm | - | - | - |
| 1788365722 | 31.11° C | 76% | 1016.5 hPa | 0 mm | - | - | - |
| 1788365421 | 32.22° C | 74% | 1016.5 hPa | 0 mm | - | - | - |
| 1788365121 | 31.67° C | 74% | 1016.6 hPa | 0 mm | - | - | - |
* Rain latest hour (hover to see other rain measurements)
** Current wind speed in m/s (hover to see current wind gust speed)